www.pogodaiklimat.ru
ПОГОДА в Силер-Сити
Время
и дата
02:35 30.01
02:55 30.01
03:15 30.01
03:35 30.01
03:55 30.01
04:15 30.01
04:35 30.01
04:55 30.01
05:15 30.01
05:35 30.01
05:55 30.01
06:15 30.01
06:35 30.01
06:55 30.01
07:15 30.01
07:35 30.01
07:55 30.01
08:15 30.01
08:35 30.01
08:55 30.01
09:15 30.01
09:35 30.01
09:55 30.01
10:15 30.01
10:35 30.01
10:55 30.01
11:15 30.01
11:35 30.01
11:55 30.01
12:15 30.01
12:35 30.01
12:55 30.01
13:15 30.01
13:35 30.01
13:55 30.01
14:15 30.01
14:35 30.01
14:55 30.01
15:15 30.01
15:35 30.01
15:55 30.01
16:15 30.01
16:35 30.01
16:55 30.01
17:15 30.01
17:35 30.01
17:55 30.01
18:15 30.01
Ветер
(напр.,м/с)
Видим. Явления Облачность Т
(С)
Тd
(С)
f
(%)
Тe
(С)
Тes
(С)
Комфортность P
(гПа)
Po
(гПа)
Тmin
(С)
Tmax
(С)
R
(мм)
R24
(мм)
S
(см)
С 2 16 км ясно -4.8 -9.8 68 -9 -9 831.5
С 3 16 км ясно -4.2 -9.0 69 -9 -9 831.5
С 4 16 км ясно -4.0 -8.5 71 -10 -10 831.5
С 3 16 км ясно -4.3 -8.6 72 -9 -9 831.5
С 5 16 км ясно -4.2 -8.5 72 -11 -11 831.5
С 4 16 км ясно -3.0 -8.3 67 -9 -9 831.5
С 4 16 км ясно -3.5 -8.4 69 -9 -9 831.5
С 4 16 км ясно -3.0 -8.1 68 -9 -9 831.5 -5.6 +3.2
С 4 16 км ясно -3.1 -8.1 68 -9 -9 831.5
С 4 16 км ясно -3.1 -8.0 69 -9 -9 831.5
С 4 16 км ясно -2.7 -8.1 66 -8 -8 831.7
С 5 16 км ясно -2.9 -8.2 67 -9 -9 831.7
С 4 16 км ясно -3.0 -8.1 68 -9 -9 831.7
С 4 16 км ясно -3.6 -8.4 69 -9 -9 832.0
С 4 16 км ясно -3.9 -8.3 71 -10 -10 832.0
С 3 16 км ясно -3.0 -8.0 68 -8 -8 832.3
С 2 16 км ясно -0.4 -7.2 60 -4 -4 832.3
С 2 16 км ясно +1.8 -6.5 54 -1 0 832.3
С 2 16 км ясно +4.4 -6.3 46 +2 +3 832.6
штиль 0 16 км ясно +7.4 -7.8 33 +7 +9 832.8
штиль 0 16 км ясно +8.3 -8.3 30 +8 +12 832.8
З 3 16 км ясно +9.5 -9.3 26 +8 +11 832.8
ЮЗ 3 16 км ясно +10.3 -8.9 25 +9 +11 832.8
ЮЗ 2 16 км ясно +10.8 -9.1 24 +10 +16 833.1
Ю 6
{8}
16 км ясно +12.1 -12.2 17 +10 +12 832.8
Ю 6 16 км ясно +12.8 -11.8 17 +11 +13 832.6 -3.9 +12.8
ЮЗ 5 16 км ясно +13.0 -12.9 15 +12 +16 832.3
ЮЗ 5
{8}
16 км ясно +13.7 -14.1 13 +12 +17 832.3
ЮЗ 5 16 км ясно +14.1 -13.4 14 +13 +17 832.0
ЮЗ 6
{9}
16 км ясно +13.9 -13.6 14 +12 +16 831.7
ЮЗ 7
{9}
16 км ясно +14.4 -13.9 13 +13 +15 831.5
ЮЗ 5
{8}
16 км ясно +14.7 -13.3 13 +14 +18 831.2
ЮЗ 8
{10}
16 км ясно +15.4 -14.7 11 +14 +15 830.6
ЮЗ 8
{13}
16 км ясно +16.1 -16.5 9 +15 +16 830.4
ЮЗ 8
{11}
16 км ясно +15.9 -16.1 10 +14 +16 830.1
З 7
{11}
16 км ясно +16.3 -16.3 9 +15 +17 830.1
ЮЗ 8
{11}
16 км ясно +16.3 -16.1 9 +15 +16 830.1
ЮЗ 6
{11}
16 км ясно +16.2 -16.0 10 +15 +18 829.8
ЮЗ 7
{11}
16 км ясно +16.2 -15.5 10 +15 +16 829.5
ЮЗ 7
{11}
16 км ясно +16.2 -15.9 10 +15 +16 829.5
ЮЗ 8
{10}
16 км ясно +15.9 -15.9 10 +14 +15 829.5
З 6
{8}
16 км ясно +15.7 -15.3 10 +15 +15 829.5
З 5 16 км ясно +15.0 -15.9 10 +14 +15 829.8
ЮЗ 3
{5}
16 км ясно +14.7 -15.6 11 +14 +16 829.8 +12.8 +16.4
З 3 16 км ясно +14.0 -15.8 11 +14 +14 829.8
З 3 16 км ясно +12.5 -15.5 13 +12 +12 829.8
ЮЗ 4 16 км ясно +11.4 -14.7 15 +10 +10 830.1
ЮЗ 3 16 км ясно +9.7 -14.2 17 +8 +8 830.1
Местоположение метеостанции Grant County Airport: широта 32.6333 долгота -108.1500 высота над уровнем моря 1659 м.
В архиве по умолчанию представлена погода в Силер-Сити за последние 1-2 суток. Обновление информации о фактической погоде в базе происходит ежечасно! Архивные данные за месяц целиком и за предыдущие месяцы Вы можете получить, выбрав интересующий диапазон дат из раскрывающегося списка и нажав кнопку "Ввод!".
Внимание! Архив погоды МЕТАР в базе сайта по станциям, не включенным в климатический монитор, хранится не более 60 дней. Нет смысла пытаться выбрать более раннюю дату.
*Определитесь, кто Вы:
Внимание! Время в таблицах - местное (без учета летнего времени). Для получения всемирного времени необходимо вычесть поправку, которая равна -7 ч.
Смотрите также архив погоды в соседних городах и на ближайших метеорологических станциях:
Партнеры нашего сайта:      
Пояснения к столбцам:
  • Ветер - указаны скорость ветра в м/с - средняя за 10 мин, порывы в срок и между сроками (в фигурных скобках) и направление, откуда дует ветер: С - северный,
  • СВ - северо-восточный, В - восточный, ЮВ - юго-восточный, Ю - южный, ЮЗ - юго-западный, З - западный, СЗ - северо-западный.
  • Видимость - горизонтальная дальность видимости в метрах или километрах. При видимости от 1 до 10 км при отсутствии осадков обычно наблюдается дымка, при ухудшении видимости до 1 км и менее - туман. В сухую погоду видимость может ухудшаться дымом, пылью или мглою.
  • Явления - указаны атмосферные явления, наблюдавшиеся в срок или в последний час перед сроком; фигурными скобками обозначены явления, наблюдавшиеся между сроками (за 1-3 часа до срока); квадратными скобками обозначены град или гололедные отложения с указанием их диаметра в мм.
  • Облачность - указаны через наклонную черту общая и нижняя облачность в баллах и высота нижней границы облаков в метрах; квадратными скобками обозначены формы облаков: Ci - перистые, Cs - перисто-слоистые, Cc - перисто-кучевые, Ac - высококучевые, As - высокослоистые, Sc - слоисто-кучевые, Ns - слоисто-дождевые, Cu - кучевые, Cb - кучево-дождевые. Подробнее классификацию облаков см. в Атласе облаков (PDF).
  • T - Температура воздуха - температура, измеренная на высоте 2 м над землей.
  • Td - Температура точки росы - температура, при понижении до которой содержащийся в воздухе водяной пар достигнет насыщения.
  • f - Относительная влажность воздуха - влажноcть воздуха, измеренная на высоте 2 м над землей.
  • Te - Эффективная температура - температура, которую ощущает одетый по сезону человек в тени. Характеристика душности погоды. При расчете учитывается влияние влажности воздуха и скорости ветра на теплоощущения человека.
  • Tes - Эффективная температура на солнце - температура, которую ощущает человек, с поправкой на солнечный нагрев. Характеристика знойности погоды. Зависит от высоты солнца над горизонтом, облачности и скорости ветра. Ночью, в пасмурную погоду, а также при ветре 12 м/с и более поправка равна нулю.
  • P - Атмосферное давление - приведенное к уровню моря атмосферное давление.
  • Po - Атмосферное давление - измеренное на уровне метеостанции атмосферное давление.
  • Tmin - Минимальная температура - минимум температуры воздуха на высоте 2 м над землей.
  • Tmax - Максимальная температура - максимум температуры воздуха на высоте 2 м над землей.
  • R - Количество осадков - Количество выпавших осадков за период времени, мм. При наведении курсора мыши на число - период времени, за который выпало указанное количество осадков.
  • R24 - Количество осадков - Количество выпавших осадков за 24 часа, мм.
  • S - Снежный покров - Высота снежного покрова, см. При наведении курсора мыши на число - состояние снежного покрова и степень покрытия местности в баллах.